Location: Derby
(52.9213°N, 1.4761°W)
Time: 19:27:18
(UTC+01:00)

Tiros 1 - Pass Details

Date: 25 May 2025
Orbit: 620 x 651 km, 48.4° (Epoch: 13 June)

Event Time Altitude Azimuth Distance (km) Brightness Sun altitude
Rises 18:42:57 0° 255° (WSW) 2,893 11.7 19.6°
Reaches altitude 10° 18:45:18 10° 249° (WSW) 1,989 10.9 19.3°
Maximum altitude 18:49:41 48° 176° (S) 820 7.8 18.6°
Drops below altitude 10° 18:54:07 10° 102° (ESE) 2,004 9.1 18.0°
Sets 18:56:30 0° 97° (E) 2,917 9.9 17.6°
